Location: Martin Dies, Jr. State Park
(30.8429°N, 94.1720°W)
Time: 03:54:34
(UTC-05:00)

N. Korean satellite - Visible Passes

Search period start: 23 April 2021 00:00
Search period end: 03 May 2021 00:00
Orbit: 452 x 499 km, 97.2° (Epoch: 22 April)

Date Brightness Start Highest point End Pass type
(mag) Time Alt. Az. Time Alt. Az. Time Alt. Az.
23 Apr 9.6 05:42:18 10° ENE 05:44:09 14° E 05:45:59 10° SE visible
26 Apr 9.3 05:53:43 10° NE 05:56:22 20° E 05:58:58 10° SE visible
29 Apr 8.6 06:05:25 10° NE 06:08:31 30° E 06:11:33 10° SSE visible
30 Apr 9.7 05:39:50 10° ENE 05:41:20 12° E 05:42:50 10° ESE visible
